Home   Weather   Springfield   Past weeks

Flag for USA Past Weather in Springfield, Massachusetts, USA — Yesterday and Last 2 Weeks

Now
54 °F

Partly sunny.


Feels Like: 54 °F
Forecast: 49 / 63 °F
Wind: 5 mph from North

Location: Chicopee Falls / Westover Air Force Base

Current Time: Apr 30, 2017 at 10:57:23 am

Latest Report: Apr 30, 2017 at 9:58 am


Visibility: 10 mi

Pressure: 30.27 "Hg

Humidity: 38%

Dew Point: 29 °F

Location of SpringfieldLocation

Past Weather in Springfield — Graph

°F

Springfield Temperature Yesterday

Maximum temperature yesterday: 83 °F (at 3:58 pm)
Minimum temperature yesterday: 59 °F (at 12:58 am)
Average temperature yesterday: 67 °F

High & Low Weather Summary for the Past Weeks

 TemperatureHumidityPressure
High87 °F (Apr 16, 4:58 pm)100% (Apr 21, 11:32 pm)30.57 "Hg (Apr 21, 11:32 pm)
Low36 °F (Apr 24, 5:18 am)18% (Apr 24, 2:58 pm)29.65 "Hg (Apr 16, 5:58 pm)
Average55 °F72%30.05 "Hg
* Reported Apr 15 8:58 am — Apr 30 8:58 am, Springfield, Weather by CustomWeather, © 2017

Note: Actual official high and low records may vary slightly from our data, if they occured in-between our weather recording intervals... More about our weather records

Advertising

Springfield Weather History for the Previous 24 Hours

Scroll right to see more
 ConditionsComfort  
Time TempWeatherWind HumidityBarometerVisibility
8:58 am
Sun, Apr 30
53 °FPartly sunny.7 mph42%30.28 "Hg10 mi
7:58 am51 °FScattered clouds.12 mph46%30.28 "Hg10 mi
6:58 am49 °FScattered clouds.9 mph49%30.27 "Hg10 mi
5:58 am49 °FSunny.8 mph50%30.24 "Hg10 mi
5:43 am48 °FClear.6 mph54%30.23 "Hg2 mi
4:58 am51 °FClear.10 mph53%30.20 "Hg5 mi
4:35 am52 °FClear.9 mph54%30.19 "Hg3 mi
3:58 am52 °FClear.7 mph54%30.17 "Hg4 mi
2:58 am54 °FClear.7 mph50%30.16 "Hg5 mi
1:58 am54 °FClear.9 mph51%30.16 "Hg4 mi
12:58 am56 °FClear.12 mph50%30.16 "Hg7 mi
11:58 pm
Sat, Apr 29
59 °FClear.13 mph43%30.10 "Hg6 mi
10:58 pm62 °FPassing clouds.15 mph39%30.06 "Hg8 mi
9:58 pm65 °FPassing clouds.8 mph38%30.06 "Hg10 mi
8:58 pm66 °FPartly cloudy.15 mph44%30.04 "Hg10 mi
7:58 pm67 °FPassing clouds.15 mph49%30.01 "Hg10 mi
6:58 pm70 °FScattered clouds.13 mph47%29.96 "Hg10 mi
5:58 pm71 °FPartly sunny.21 mph49%29.98 "Hg10 mi
4:58 pm76 °FMostly cloudy.21 mph46%29.94 "Hg10 mi
3:58 pm83 °FMore clouds than sun.20 mph37%29.90 "Hg10 mi
2:58 pm82 °FCloudy.17 mph41%29.86 "Hg10 mi
1:58 pm81 °FCloudy.10 mph44%29.87 "Hg10 mi
12:58 pm80 °FBroken clouds.13 mph45%29.88 "Hg10 mi
11:58 am78 °FBroken clouds.9 mph45%29.92 "Hg10 mi
10:58 am75 °FPartly sunny.8 mph44%29.95 "Hg10 mi
Weather by CustomWeather, © 2017

See weather overviewHow to use our weather pages